Location: Ethel Rock
(53.4667°N, 4.5667°W)
Time: 05:12:03
(UTC+00:00)

CZ-4B R/B - Pass Details

Date: 24 October 2020
Orbit: 489 x 649 km, 97.9° (Epoch: 25 November)

Event Time Altitude Azimuth Distance (km) Brightness Sun altitude
Rises 05:48:10 0° 14° (NNE) 2,674 6.5 -11.7°
Reaches altitude 10° 05:50:14 10° 14° (NNE) 1,802 5.6 -11.4°
Maximum altitude 05:54:08 86° 285° (WNW) 563 2.8 -10.8°
Drops below altitude 10° 05:58:13 10° 198° (SSW) 1,882 5.4 -10.2°
Sets 06:00:24 0° 198° (SSW) 2,804 6.3 -9.9°
